TimeEST,TemperatureF,Dew PointF,Humidity,Sea Level PressureIn,VisibilityMPH,Wind Direction,Wind SpeedMPH,Gust SpeedMPH,PrecipitationIn,Events,Conditions,WindDirDegrees,DateUTC
12:15 AM,26.6,19.4,74,30.11,10.0,Calm,Calm,-,N/A,,Clear,0,2013-02-26 05:15:00
12:35 AM,26.6,17.6,69,30.11,10.0,East,3.5,-,N/A,,Clear,80,2013-02-26 05:35:00
12:55 AM,24.8,17.6,74,30.12,10.0,East,3.5,-,N/A,,Clear,90,2013-02-26 05:55:00
1:15 AM,24.8,17.6,74,30.11,10.0,East,5.8,-,N/A,,Clear,80,2013-02-26 06:15:00
1:35 AM,24.8,17.6,74,30.11,10.0,East,5.8,-,N/A,,Clear,80,2013-02-26 06:35:00
1:55 AM,24.8,17.6,74,30.11,10.0,East,4.6,-,N/A,,Clear,100,2013-02-26 06:55:00
2:15 AM,24.8,17.6,74,30.11,10.0,ESE,4.6,-,N/A,,Clear,110,2013-02-26 07:15:00
2:35 AM,26.6,17.6,69,30.10,10.0,ESE,4.6,-,N/A,,Clear,110,2013-02-26 07:35:00
2:55 AM,24.8,17.6,74,30.09,10.0,ESE,5.8,-,N/A,,Clear,110,2013-02-26 07:55:00
3:15 AM,26.6,17.6,69,30.08,10.0,East,5.8,-,N/A,,Clear,100,2013-02-26 08:15:00
3:35 AM,24.8,17.6,74,30.08,10.0,East,5.8,-,N/A,,Clear,100,2013-02-26 08:35:00
3:55 AM,24.8,17.6,74,30.08,10.0,ESE,5.8,-,N/A,,Clear,120,2013-02-26 08:55:00
4:15 AM,26.6,17.6,69,30.06,10.0,SE,8.1,-,N/A,,Clear,130,2013-02-26 09:15:00
4:35 AM,26.6,17.6,69,30.07,10.0,East,6.9,-,N/A,,Clear,90,2013-02-26 09:35:00
4:55 AM,26.6,17.6,69,30.06,10.0,East,6.9,-,N/A,,Clear,100,2013-02-26 09:55:00
5:15 AM,26.6,17.6,69,30.05,10.0,East,5.8,-,N/A,,Clear,80,2013-02-26 10:15:00
5:35 AM,26.6,17.6,69,30.05,10.0,ESE,6.9,-,N/A,,Clear,110,2013-02-26 10:35:00
5:55 AM,26.6,19.4,74,30.04,10.0,East,8.1,-,N/A,,Clear,90,2013-02-26 10:55:00
6:15 AM,26.6,17.6,69,30.04,10.0,East,8.1,-,N/A,,Clear,90,2013-02-26 11:15:00
6:35 AM,26.6,17.6,69,30.03,10.0,East,6.9,-,N/A,,Clear,90,2013-02-26 11:35:00
6:55 AM,26.6,19.4,74,30.03,10.0,East,9.2,-,N/A,,Clear,90,2013-02-26 11:55:00
7:15 AM,26.6,19.4,74,30.04,10.0,ESE,10.4,-,N/A,,Clear,110,2013-02-26 12:15:00
7:35 AM,26.6,19.4,74,30.04,10.0,ESE,9.2,-,N/A,,Clear,110,2013-02-26 12:35:00
7:55 AM,26.6,19.4,74,30.03,10.0,ESE,11.5,-,N/A,,Clear,110,2013-02-26 12:55:00
8:15 AM,28.4,19.4,69,30.02,10.0,ESE,15.0,20.7,N/A,,Clear,120,2013-02-26 13:15:00
8:35 AM,28.4,19.4,69,30.03,10.0,ESE,13.8,18.4,N/A,,Clear,120,2013-02-26 13:35:00
8:55 AM,28.4,19.4,69,30.02,10.0,ESE,10.4,-,N/A,,Clear,120,2013-02-26 13:55:00
9:15 AM,30.2,21.2,69,30.02,10.0,SE,11.5,18.4,N/A,,Clear,130,2013-02-26 14:15:00
9:35 AM,30.2,21.2,69,30.01,10.0,ESE,10.4,20.7,N/A,,Clear,120,2013-02-26 14:35:00
9:55 AM,32.0,21.2,64,29.99,10.0,SE,13.8,19.6,N/A,,Clear,140,2013-02-26 14:55:00
10:15 AM,33.8,21.2,60,29.98,10.0,ESE,15.0,20.7,N/A,,Clear,120,2013-02-26 15:15:00
10:35 AM,33.8,23.0,65,29.97,10.0,SE,12.7,24.2,N/A,,Clear,140,2013-02-26 15:35:00
10:55 AM,33.8,23.0,65,29.97,10.0,SE,13.8,18.4,N/A,,Clear,130,2013-02-26 15:55:00
11:15 AM,35.6,23.0,60,29.95,10.0,SE,18.4,23.0,N/A,,Clear,130,2013-02-26 16:15:00
11:35 AM,35.6,21.2,56,29.94,10.0,SE,12.7,24.2,N/A,,Clear,140,2013-02-26 16:35:00
11:55 AM,35.6,23.0,60,29.94,10.0,SE,11.5,25.3,N/A,,Clear,140,2013-02-26 16:55:00
12:15 PM,35.6,23.0,60,29.92,10.0,SE,10.4,21.9,N/A,,Clear,140,2013-02-26 17:15:00
12:35 PM,35.6,23.0,60,29.91,10.0,SSE,16.1,21.9,N/A,,Clear,150,2013-02-26 17:35:00
12:55 PM,35.6,23.0,60,29.90,10.0,SSE,13.8,23.0,N/A,,Clear,150,2013-02-26 17:55:00
1:15 PM,35.6,23.0,60,29.89,10.0,SSE,15.0,26.5,N/A,,Clear,150,2013-02-26 18:15:00
1:35 PM,35.6,23.0,60,29.88,10.0,SE,15.0,23.0,N/A,,Scattered Clouds,140,2013-02-26 18:35:00
1:55 PM,37.4,23.0,56,29.88,10.0,SE,15.0,20.7,N/A,,Mostly Cloudy,140,2013-02-26 18:55:00
2:15 PM,37.4,23.0,56,29.87,10.0,SE,16.1,24.2,N/A,,Mostly Cloudy,140,2013-02-26 19:15:00
2:35 PM,35.6,23.0,60,29.86,10.0,SE,16.1,21.9,N/A,,Overcast,130,2013-02-26 19:35:00
2:55 PM,35.6,23.0,60,29.84,10.0,SE,15.0,19.6,N/A,,Overcast,140,2013-02-26 19:55:00
3:15 PM,35.6,23.0,60,29.83,10.0,SE,15.0,23.0,N/A,,Overcast,140,2013-02-26 20:15:00
3:35 PM,35.6,23.0,60,29.81,10.0,SE,15.0,26.5,N/A,,Overcast,130,2013-02-26 20:35:00
3:55 PM,35.6,23.0,60,29.81,10.0,SE,12.7,24.2,N/A,,Overcast,140,2013-02-26 20:55:00
4:15 PM,33.8,24.8,70,29.80,10.0,SE,18.4,23.0,N/A,,Overcast,140,2013-02-26 21:15:00
4:35 PM,33.8,26.6,75,29.79,10.0,SE,13.8,19.6,N/A,,Overcast,130,2013-02-26 21:35:00
4:55 PM,33.8,26.6,75,29.79,8.0,SE,17.3,23.0,N/A,,Overcast,130,2013-02-26 21:55:00
5:15 PM,33.8,26.6,75,29.78,5.0,SE,18.4,26.5,0.01,,Overcast,130,2013-02-26 22:15:00
5:35 PM,33.8,26.6,75,29.77,4.0,SE,16.1,24.2,0.03,,Overcast,130,2013-02-26 22:35:00
5:55 PM,33.8,28.4,81,29.76,5.0,SE,15.0,20.7,0.05,,Overcast,130,2013-02-26 22:55:00
6:15 PM,33.8,28.4,81,29.74,3.0,SE,18.4,24.2,0.03,,Overcast,130,2013-02-26 23:15:00
6:35 PM,33.8,28.4,81,29.73,5.0,ESE,12.7,20.7,0.05,,Overcast,120,2013-02-26 23:35:00
6:55 PM,33.8,30.2,87,29.72,5.0,ESE,15.0,21.9,0.07,,Overcast,120,2013-02-26 23:55:00
7:15 PM,33.8,30.2,87,29.75,7.0,SE,8.1,-,0.01,,Overcast,140,2013-02-27 00:15:00
7:35 PM,33.8,30.2,87,29.73,9.0,ESE,13.8,18.4,0.02,,Overcast,120,2013-02-27 00:35:00
7:55 PM,33.8,30.2,87,29.75,5.0,SE,10.4,-,0.04,,Overcast,130,2013-02-27 00:55:00
8:15 PM,33.8,28.4,81,29.73,3.0,East,11.5,-,0.06,,Overcast,100,2013-02-27 01:15:00
8:35 PM,33.8,30.2,87,29.71,3.0,East,13.8,-,0.15,,Overcast,100,2013-02-27 01:35:00
8:55 PM,33.8,30.2,87,29.68,3.0,East,12.7,20.7,0.27,,Overcast,100,2013-02-27 01:55:00
9:15 PM,33.8,30.2,87,29.70,4.0,ESE,12.7,-,0.03,,Overcast,120,2013-02-27 02:15:00
9:35 PM,33.8,30.2,87,29.67,2.0,ESE,11.5,18.4,0.03,,Overcast,110,2013-02-27 02:35:00
9:55 PM,32.0,30.2,93,29.66,4.0,ESE,12.7,-,0.03,,Overcast,120,2013-02-27 02:55:00
10:15 PM,32.0,30.2,93,29.64,10.0,ESE,12.7,20.7,N/A,,Overcast,110,2013-02-27 03:15:00
10:35 PM,33.8,30.2,87,29.63,10.0,ESE,13.8,21.9,N/A,,Overcast,120,2013-02-27 03:35:00
10:55 PM,33.8,30.2,87,29.63,10.0,SE,13.8,21.9,N/A,,Overcast,130,2013-02-27 03:55:00
11:15 PM,33.8,30.2,87,29.62,10.0,SE,12.7,19.6,N/A,,Overcast,130,2013-02-27 04:15:00
11:55 PM,35.6,30.2,81,29.62,10.0,SE,12.7,20.7,N/A,,Overcast,130,2013-02-27 04:55:00